Regional Weather Roundup
Issued by NWS

Home | Current Version | Previous Version | Text Only | Print | Product List | Glossary On
Versions: 1 2 3 4 5 6 7 8 9 10 11 12 13 14 15 16 17 18 19 20 21 22 23 24 25 26 27 28 29 30 31 32 33 34 35 36 37 38 39 40 41 42 43 44 45 46 47 48 49 50
000
ASUS43 KDTX 231510
RWRMI
MICHIGAN HOURLY REGIONAL WEATHER ROUNDUP
NATIONAL WEATHER SERVICE DETROIT/PONTIAC MI
ISSUED BY NATIONAL WEATHER SERVICE GRAND RAPIDS MI
1100 AM EDT FRI JUN 23 2017

NOTE: "FAIR" INDICATES FEW OR NO CLOUDS BELOW 12,000 FEET WITH NO
SIGNIFICANT WEATHER AND/OR OBSTRUCTION TO VISIBILITY.

MIZ047>049-052>055-059>063-066>070-074>076-081>083-231600-
SOUTHEAST LOWER MICHIGAN

CITY           SKY/WX    TMP DP  RH WIND       PRES   REMARKS
ADRIAN         LGT RAIN  72  71  97 W3        29.61F
ALMA           CLOUDY    69  67  94 SW6       29.62S
ANN ARBOR      CLOUDY    70  68  93 CALM      29.63F
BAD AXE        CLOUDY    68  66  94 CALM      29.60S
DETROIT CITY   CLOUDY    74  70  87 W13G23    29.60F
DETROIT        CLOUDY    73  68  84 S3        29.61F
FLINT          CLOUDY    69  67  93 S6        29.60S
GROSSE ILE     RAIN      73  71  93 W8        29.61F
HILLSDALE      CLOUDY    73  68  83 SE3       29.58F
HOWELL         CLOUDY    70  65  83 S6        29.61F

CITY           SKY/WX    TMP DP  RH WIND       PRES   REMARKS
JACKSON        LGT RAIN  73  68  84 NE7       29.58F
LANSING        CLOUDY    71  66  84 W7        29.62F
MASON          LGT RAIN  69  67  95 CALM      29.60F
MONROE         RAIN      72  71  96 SW6       29.61F
MT. CLEMENS    HVY RAIN  67  67 100 E12       29.59F FOG
PONTIAC        CLOUDY    70  69  97 E7        29.60S
PORT HOPE        N/A     69  66  90 CALM      29.58S
PORT HURON     HVY RAIN  66  64  94 SE5       29.63S
TRI CITIES     CLOUDY    68  68 100 W7        29.60F
YPSILANTI      CLOUDY    73  68  84 CALM      29.62F
$$
MIZ043>046-050>051-056>058-064>065-071>073-077>080-231600-
SOUTHWEST LOWER MICHIGAN

CITY           SKY/WX    TMP DP  RH WIND       PRES   REMARKS
BATTLE CREEK   CLOUDY    71  68  90 NW9       29.64F
BENTON HARBOR  CLOUDY    67  63  87 VRB6      29.67F
BIG RAPIDS     PTSUNNY   69  62  80 NW5       29.62F
COLDWATER      CLOUDY    75  72  92 W10       29.63R
HOLLAND        CLOUDY    70  63  78 VRB6      29.67S
GRAND RAPIDS   CLOUDY    70  66  87 NW6       29.63F
KALAMAZOO      CLOUDY    71  66  84 W10       29.65R
MARSHALL       CLOUDY    73  72  96 NW3       29.62S
MOUNT PLEASANT CLOUDY    68  65  91 W7        29.61S
MUSKEGON       CLOUDY    68  65  90 W8        29.66S
STURGIS        CLOUDY    72  68  87 W7        29.64R
$$
MIZ016>042-231600-
NORTHERN LOWER MICHIGAN

CITY           SKY/WX    TMP DP  RH WIND       PRES   REMARKS
ALPENA         CLOUDY    70  66  87 W6        29.57F
BEAVER ISLAND  CLOUDY    66  65  96 W6        29.61S
BELLAIRE       CLOUDY    67  62  84 W5        29.61S
CADILLAC       CLOUDY    69  62  77 W8        29.63R
CHARLEVOIX     FOG       61  61 100 W10       29.64R VSB 1/4
GAYLORD        CLOUDY    68  60  75 NW7       29.61S
HOUGHTON LAKE  CLOUDY    69  63  81 W6        29.61F
MANISTEE       CLOUDY    67  62  84 NW8       29.64R
OSCODA         CLOUDY    69  67  92 W6        29.58S
PELLSTON       MOSUNNY   71  61  70 SE3       29.58F
TRAVERSE CITY  CLOUDY    71  62  73 NW6       29.60S
LUDINGTON      CLOUDY    66  64  93 W8        29.65R
$$
MIZ007>008-015-231600-
EASTERN UPPER MICHIGAN

CITY           SKY/WX    TMP DP  RH WIND       PRES   REMARKS
KINROSS        PTSUNNY   70  57  63 NW8       29.58S
MACKINAC ISLAN CLOUDY    62  62 100 W8        29.59R FOG
NEWBERRY       MOSUNNY   69  56  62 W6        29.58F
S. S. MARIE    CLOUDY    71  56  58 W7        29.56S
$$
MIZ004>006-011>014-085-231600-
CENTRAL UPPER MICHIGAN

CITY           SKY/WX    TMP DP  RH WIND       PRES   REMARKS
MANISTIQUE     MOSUNNY   71  55  57 W3        29.59S
ESCANABA       CLOUDY    72  57  59 W7        29.61F
MENOMINEE      PTSUNNY   71  59  65 VRB6      29.64F
SAWYER-GWINN   SUNNY     72  50  46 SW7       29.60F
$$
MIZ001>003-009>011-084-231600-
WESTERN UPPER MICHIGAN

CITY           SKY/WX    TMP DP  RH WIND       PRES   REMARKS
IRON MOUNTAIN  SUNNY     72  50  45 W12       29.61F
HOUGHTON       SUNNY     65  46  50 W18       29.60R
COPPER HARBOR    N/A     61  51  70 N16       29.56R
IRONWOOD       MOSUNNY   64  50  60 W16       29.67R
$$

ABBREVIATIONS USED IN REMARKS
   TC - TEMPERATURE IN CELSIUS
  WCI - WIND CHILL INDEX
   HX - HEAT INDEX
  VSB - VISIBILITY





USA.gov is the U.S. government's official web portal to all federal, state and local government web resources and services.